Location: Guayaquil
(2.1667°S, 79.9000°W)
Time: 12:18:50
(UTC-05:00)

Tiangong 2 - Visible Passes

Search period start: 26 April 2018 00:00
Search period end: 06 May 2018 00:00
Orbit: 381 x 388 km, 42.8° (Epoch: 25 April)

Date Brightness Start Highest point End Pass type
(mag) Time Alt. Az. Time Alt. Az. Time Alt. Az.
26 Apr 3.7 04:33:46 18° ESE 04:33:46 18° ESE 04:35:26 10° E visible
27 Apr 1.4 05:09:53 43° WNW 05:10:09 45° NW 05:13:10 10° NNE visible
28 Apr 4.7 04:13:40 10° ENE 04:13:40 10° ENE 04:13:42 10° ENE visible
29 Apr 3.9 04:49:36 11° N 04:49:36 11° N 04:49:45 10° N visible
